Miscellaneous Local Product
Issued by NWS North Platte, NE

Home | Current Version | Previous Version | Text Only | Print | Product List | Glossary On
Versions: 1 2 3 4 5 6 7 8 9 10 11 12 13 14 15 16 17 18 19 20 21 22 23 24 25 26 27 28 29 30 31 32 33 34 35 36 37 38 39 40 41 42 43 44 45 46 47 48 49 50
713
AXUS43 KLBF 231810
MISLBF


WESTERN AND NORTH CENTRAL NEBRASKA HOURLY WEATHER ROUNDUP
NATIONAL WEATHER SERVICE NORTH PLATTE NE
100 PM CDT SAT JUL 23 2016

NOTE: "FAIR" INDICATES FEW OR NO CLOUDS BELOW 12,000 FEET WITH NO
SIGNIFICANT WEATHER AND/OR OBSTRUCTIONS TO VISIBILITY.

NOTE: STATIONS NOT REPORTING VARIABLES SUCH AS SKY/WEATHER OR
PRESSURE ARE PROVIDED BY RAWS AND APRS NETWORKS AND ARE NOT UNDER
NATIONAL WEATHER SERVICE QUALITY CONTROL.

...OBSERVATIONS IN AND NEAR THE EASTERN PANHANDLE OF NEBRASKA...

CITY           SKY/WX    TMP DP  RH WIND       PRES   REMARKS
PINE RIDGE     SUNNY     88  59  37 N17G26    29.94R
CHADRON        SUNNY     90  53  28 NW14G23   29.93S
ALLIANCE       SUNNY     89  52  28 N15       29.98R
SIDNEY         SUNNY     95  49  20 N10       30.03R HX  92
CRESCENT LAKE    N/A     89  53  29 NW13G20     N/A
$$

...OBSERVATIONS IN NORTHERN NEBRASKA AND FAR SOUTHERN SOUTH DAKOTA...

CITY           SKY/WX    TMP DP  RH WIND       PRES   REMARKS
WINNER         FAIR      94  64  37 SW9G18    29.76F HX  95
VALENTINE      SUNNY     92  64  39 NW13      29.81F HX  93
THEDFORD       SUNNY     92  65  40 W14G21    29.87F HX  94
AINSWORTH      SUNNY     92  66  42 W16       29.81F HX  95
O`NEILL        SUNNY     91  64  40 SW16      29.81S HX  93
ORD            SUNNY     87  71  58 SW10      29.83F HX  93
BROKEN BOW     SUNNY     85  70  60 SW13      29.87F
VALENTINE NWR    N/A     91  65  41 W13G20      N/A  HX  92
BUTTE            N/A     88  69  52 S12G18      N/A  HX  92
HALSEY           N/A     89  66  46 SW9G21      N/A  HX  91
EWING            N/A     89  75  62 SW9G16      N/A  HX  98
$$

...OBSERVATIONS IN SOUTHWEST NEBRASKA AND FAR NORTHEAST COLORADO...

CITY           SKY/WX    TMP DP  RH WIND       PRES   REMARKS
WRAY           FAIR      93  61  33 W3        29.98S HX  93
HOLYOKE        FAIR     N/A N/A N/A W9        29.98F
IMPERIAL       SUNNY     86  67  52 W7        29.94S
OGALLALA       SUNNY     89  66  46 SW6       29.93F HX  91
NORTH PLATTE   CLOUDY    85  70  60 W12       29.89F
MCCOOK         SUNNY     87  69  54 NW9       29.89S HX  91
LEXINGTON      SUNNY     87  68  53 W9        29.88R HX  91
STAPLETON        N/A     88  74  62 CALM        N/A  HX  96
GOTHENBURG       N/A     86  64  48 SW3         N/A
CALLAWAY         N/A     83  72  68 SW15        N/A
$$

...OBSERVATIONS IN CENTRAL LINCOLN COUNTY AREA...

CITY           SKY/WX    TMP DP  RH WIND       PRES   REMARKS
N.P. AIRPORT   CLOUDY    85  70  60 W12       29.89F
N.P. DOWNTOWN    N/A     88  71  56 W3          N/A  HX  93
N.P. HILLCREST   N/A     84  71  65 W9          N/A
$$

...SOME OBSERVATIONS FROM AROUND THE REGION...

CITY           SKY/WX    TMP DP  RH WIND       PRES   REMARKS
DENVER         MOSUNNY   92  40  16 VRB3      30.11F
LARAMIE        SUNNY     83  36  18 W20G31    30.25S
CHEYENNE       SUNNY     91  36  14 W17       30.15F
SCOTTSBLUFF    SUNNY     91  49  23 NW14      30.00S
RAPID CITY     SUNNY     87  46  24 NW24G33   29.95R
BISMARCK       CLOUDY    76  67  73 CALM      29.79R
PIERRE         SUNNY     93  65  39 W20G26    29.72R HX  95
SIOUX FALLS    CLOUDY    87  72  60 S15G22    29.78F HX  93
OMAHA          CLOUDY    85  74  69 S8        29.83S HX  92
GRAND ISLAND   SUNNY     91  68  46 SW20      29.85F HX  95
KANSAS CITY    PTSUNNY   89  75  63 S10       29.92S HX  99
WICHITA        PTSUNNY  100  66  32 S15G22    29.91F HX 104
OKLAHOMA CITY  MOSUNNY   97  67  37 SW16      29.96F HX 101
DALLAS         MOSUNNY   97  68  38 S14       29.96F HX 102
AMARILLO       SUNNY     95  54  25 S20G26    30.06F HX  93
DODGE CITY     SUNNY     97  60  29 S22G32    29.92F HX  97
HAYS           CLOUDY    99  64  32 S18G25    29.85F HX 101
GOODLAND       SUNNY     94  61  33 NW9       29.95F HX  94
$$




USA.gov is the U.S. government's official web portal to all federal, state and local government web resources and services.